Tracking 19817 objects as of 17-Aug-2019
HD Live streaming from Space Station
objects crossing your sky now

DELTA 4 R/B

Track DELTA 4 R/B now!


NORAD ID: 37233
Int'l Code: 2010-063B
Perigee: 33,794.3 km
Apogee: 35,745.5 km
Inclination: 3.8 °
Period: 1,384.1 minutes
Semi major axis: 41140 km
RCS: Unknown
Launch date: November 21, 2010
Source: United States (US)
Launch site: AIR FORCE EASTERN TEST RANGE (AFETR)

Note: This is a ROCKET BODY
aabbcc
Your satellite tracking list
Your tracking list is empty




NASA's NSSDC Master Catalog

Two Line Element Set (TLE):
1 37233U 10063B   19229.05714843 -.00000054  00000-0  00000+0 0  9992
2 37233   3.8180 146.9042 0237145 315.6640  42.2604  1.04038061   329
Source of the keplerian elements: McCants